746  
ASUS44 KSHV 201610  
RWRSHV  
 
WEATHER ROUNDUP FOR THE FOUR STATE AREA  
NATIONAL WEATHER SERVICE SHREVEPORT LA  
1100 AM CDT WED JUN 20 2018  
 
NOTE: "FAIR" INDICATES FEW OR NO CLOUDS BELOW 12000 FEET  
WITH NO SIGNIFICANT WEATHER AND/OR S TO VISIBILITY
.  
 
!LAZ001-LAZ014-TXZ097-201700  
SHREVEPORT...MONROE...TEXARKANA RADIOS  
 
CITY SKY/WX TMP DP RH WIND PRES REMARKS
 
SHREVEPORT CLOUDY 79 77 94 SE7 29.94S  
MONROE PTSUNNY 81 78 91 S5 29.98S  
NATCHITOCHES PTSUNNY 81 76 84 SE6 29.96S  
TEXARKANA CLOUDY 76 75 97 SE7 29.94S  

 
 
!LAZ001-LAZ014-TXZ097-201700  
OTHER LOCATIONS...  
 
CITY SKY/WX TMP DP RH WIND PRES REMARKS
 
DOWNTOWN SHV CLOUDY 79 76 90 SE5 29.94F  
BOSSIER CITY CLOUDY 77 77 100 SE6 29.93F  
RUSTON LGT RAIN 77 75 92 CALM 30.01S  
LITTLE ROCK CLOUDY 79 74 84 S6 29.96F  
EL DORADO LGT RAIN 75 75 100 SE5 29.98S FOG  
JACKSON PTSUNNY 83 74 74 CALM 29.98F  
NEW ORLEANS PTSUNNY 88 77 69 SE8 29.97S HX 100  
HOUSTON CLOUDY 86 78 77 SE13 29.87S HX 98  
LUFKIN LGT RAIN 79 76 90 SE5 29.92S  
TYLER HVY RAIN 76 75 97 SW13G24 29.93R VSB 1  
DAL FT WORTH PTSUNNY 79 72 79 S6 29.90F  

 
 
!TXZ136-TXZ165-201700  
TYLER...LUFKIN RADIOS  
 
CITY SKY/WX TMP DP RH WIND PRES REMARKS
 
TYLER HVY RAIN 76 75 97 SW13G24 29.93R VSB 1  
GILMER DRIZZLE 77 75 92 SE8 29.92S  
LONGVIEW LGT RAIN 79 78 97 SE9 29.92S FOG  
LUFKIN LGT RAIN 79 76 90 SE5 29.92S  

 
 
!TXZ136-TXZ165-201700  
OTHER LOCATIONS...  
 
CITY SKY/WX TMP DP RH WIND PRES REMARKS
 
NACOGDOCHES LGT RAIN 78 76 93 SE6 29.93  
BEAUMONT PTSUNNY 85 75 72 SE14 29.90R  
HOUSTON CLOUDY 86 78 77 SE13 29.87S HX 98  
COLLEGE STN LGT RAIN 77 76 96 E9 29.88S  
AUSTIN LGT RAIN 79 75 87 SE8 29.87S  
DAL FT WORTH PTSUNNY 79 72 79 S6 29.90F  
TEXARKANA CLOUDY 76 75 97 SE7 29.94S  
SHREVEPORT CLOUDY 79 77 94 SE7 29.94S  
FORT POLK NOT AVBL  
LAKE CHARLES N/A 85 74 69 S12 29.92S  

 
 
 
CLICK HERE TO GO TO PREVIOUS BULLETINS.

The Nexlab LA Page
The Nexlab TX Page
The Nexlab AR Page
The Nexlab OK Page Main Text Page